• Em Portugal
  • Lista de países
  • Para 7 dias
  • Temperatura da água
  • Mapas de satélite
  • Mapa do tempo
  • Widgets de tempo
  • user-avatar
    Iniciar Sessão

    Previsão horária em Samsun

    Hoje, 21 Fevereiro, Quarta-feira

    Tempo Temperatura Precipitação Vento Pressão Humidade
    00:00 +7°C° 0,1 mm 1 m/s 751 mmHg 91%
    01:00 +7°C° 0,1 mm 1 m/s 751 mmHg 91%
    02:00 +7°C° 0,1 mm 1 m/s 750 mmHg 92%
    03:00 +7°C° 0,1 mm 1 m/s 750 mmHg 92%
    04:00 +7°C° 0,1 mm 1 m/s 750 mmHg 91%
    05:00 +7°C° 0,1 mm 1 m/s 750 mmHg 91%
    06:00 +8°C° 0,1 mm 1 m/s 750 mmHg 89%
    07:00 +8°C° 0,1 mm 1 m/s 750 mmHg 87%
    08:00 +9°C° 0,1 mm 1 m/s 750 mmHg 85%
    09:00 +10°C° 0 mm 1 m/s 750 mmHg 80%
    10:00 +11°C° 0 mm 1 m/s 749 mmHg 75%
    11:00 +13°C° 0 mm 2 m/s 749 mmHg 69%
    12:00 +13°C° 0 mm 2 m/s 749 mmHg 69%
    13:00 +14°C° 0 mm 2 m/s 749 mmHg 68%
    14:00 +14°C° 0 mm 2 m/s 748 mmHg 67%
    15:00 +13°C° 0 mm 2 m/s 748 mmHg 72%
    16:00 +13°C° 0 mm 2 m/s 748 mmHg 78%
    17:00 +12°C° 0 mm 2 m/s 748 mmHg 83%
    18:00 +10°C° 0 mm 2 m/s 748 mmHg 86%
    19:00 +9°C° 0 mm 2 m/s 748 mmHg 89%
    20:00 +10°C° 0 mm 1 m/s 749 mmHg 92%
    21:00 +10°C° 0 mm 1 m/s 749 mmHg 90%
    22:00 +10°C° 0 mm 1 m/s 749 mmHg 89%
    23:00 +10°C° 0 mm 1 m/s 749 mmHg 88%

    Amanhã, 22 Fevereiro, Quinta-feira

    Tempo Temperatura Precipitação Vento Pressão Humidade
    00:00 +10°C° 0 mm 1 m/s 749 mmHg 86%
    01:00 +9°C° 0 mm 2 m/s 749 mmHg 84%
    02:00 +9°C° 0 mm 2 m/s 749 mmHg 83%
    03:00 +9°C° 0 mm 2 m/s 749 mmHg 82%
    04:00 +9°C° 0 mm 2 m/s 749 mmHg 81%
    05:00 +9°C° 0 mm 2 m/s 748 mmHg 81%
    06:00 +10°C° 0 mm 2 m/s 748 mmHg 77%
    07:00 +10°C° 0 mm 2 m/s 748 mmHg 74%
    08:00 +12°C° 0 mm 2 m/s 748 mmHg 71%
    09:00 +14°C° 0 mm 2 m/s 748 mmHg 63%
    10:00 +16°C° 0 mm 2 m/s 748 mmHg 56%
    11:00 +18°C° 0 mm 2 m/s 748 mmHg 49%
    12:00 +18°C° 0 mm 2 m/s 748 mmHg 48%
    13:00 +19°C° 0 mm 3 m/s 747 mmHg 48%
    14:00 +19°C° 0 mm 3 m/s 747 mmHg 47%
    15:00 +18°C° 0 mm 3 m/s 747 mmHg 52%
    16:00 +16°C° 0 mm 2 m/s 747 mmHg 57%
    17:00 +15°C° 0 mm 2 m/s 747 mmHg 62%
    18:00 +15°C° 0 mm 2 m/s 747 mmHg 64%
    19:00 +14°C° 0 mm 2 m/s 747 mmHg 65%
    20:00 +13°C° 0 mm 1 m/s 748 mmHg 67%
    21:00 +13°C° 0 mm 1 m/s 748 mmHg 67%
    22:00 +13°C° 0 mm 1 m/s 748 mmHg 67%
    23:00 +12°C° 0 mm 1 m/s 748 mmHg 67%

    Depois de amanhã, 23 Fevereiro, Sexta-feira

    Tempo Temperatura Precipitação Vento Pressão Humidade
    00:00 +12°C° 0 mm 1 m/s 748 mmHg 67%
    01:00 +12°C° 0 mm 1 m/s 748 mmHg 67%
    02:00 +12°C° 0 mm 1 m/s 748 mmHg 67%
    03:00 +12°C° 0 mm 1 m/s 748 mmHg 68%
    04:00 +11°C° 0 mm 1 m/s 748 mmHg 68%
    05:00 +10°C° 0 mm 2 m/s 748 mmHg 69%
    06:00 +12°C° 0 mm 2 m/s 748 mmHg 68%
    07:00 +12°C° 0 mm 2 m/s 748 mmHg 67%
    08:00 +13°C° 0 mm 2 m/s 748 mmHg 65%
    09:00 +13°C° 0 mm 3 m/s 748 mmHg 62%
    10:00 +14°C° 0 mm 3 m/s 748 mmHg 60%
    11:00 +16°C° 0 mm 3 m/s 748 mmHg 57%
    12:00 +15°C° 0 mm 4 m/s 748 mmHg 60%
    13:00 +15°C° 0 mm 4 m/s 748 mmHg 63%
    14:00 +15°C° 0 mm 5 m/s 747 mmHg 67%
    15:00 +13°C° 0,1 mm 5 m/s 748 mmHg 74%
    16:00 +12°C° 0,1 mm 5 m/s 748 mmHg 81%
    17:00 +10°C° 0,1 mm 5 m/s 748 mmHg 89%
    18:00 +10°C° 0,2 mm 4 m/s 749 mmHg 90%
    19:00 +10°C° 0,2 mm 4 m/s 749 mmHg 90%
    20:00 +10°C° 0,2 mm 3 m/s 750 mmHg 91%
    21:00 +9°C° 0,1 mm 3 m/s 750 mmHg 92%
    22:00 +9°C° 0,1 mm 3 m/s 750 mmHg 92%
    23:00 +9°C° 0,1 mm 2 m/s 750 mmHg 93%

    24 Fevereiro, Sábado

    Tempo Temperatura Precipitação Vento Pressão Humidade
    00:00 +9°C° 0 mm 2 m/s 750 mmHg 93%
    01:00 +9°C° 0 mm 2 m/s 750 mmHg 93%
    02:00 +8°C° 0 mm 2 m/s 750 mmHg 93%
    03:00 +8°C° 0 mm 2 m/s 750 mmHg 93%
    04:00 +9°C° 0 mm 1 m/s 750 mmHg 93%
    05:00 +9°C° 0 mm 1 m/s 750 mmHg 93%
    06:00 +9°C° 0 mm 1 m/s 750 mmHg 92%
    07:00 +9°C° 0 mm 1 m/s 750 mmHg 91%
    08:00 +10°C° 0 mm 1 m/s 750 mmHg 89%
    09:00 +11°C° 0 mm 1 m/s 750 mmHg 85%
    10:00 +10°C° 0 mm 2 m/s 750 mmHg 80%
    11:00 +12°C° 0 mm 2 m/s 749 mmHg 76%
    12:00 +12°C° 0 mm 2 m/s 749 mmHg 78%
    13:00 +11°C° 0 mm 3 m/s 748 mmHg 80%
    14:00 +11°C° 0 mm 3 m/s 748 mmHg 82%
    15:00 +10°C° 0,1 mm 3 m/s 748 mmHg 85%
    16:00 +10°C° 0,1 mm 3 m/s 748 mmHg 87%
    17:00 +8°C° 0,1 mm 4 m/s 748 mmHg 89%
    18:00 +8°C° 0,4 mm 4 m/s 748 mmHg 90%
    19:00 +8°C° 0,4 mm 3 m/s 748 mmHg 91%
    20:00 +8°C° 0,4 mm 3 m/s 748 mmHg 92%
    21:00 +8°C° 0,9 mm 3 m/s 748 mmHg 93%
    22:00 +8°C° 0,9 mm 3 m/s 748 mmHg 94%
    23:00 +8°C° 0,9 mm 2 m/s 748 mmHg 95%

    25 Fevereiro, Domingo

    Tempo Temperatura Precipitação Vento Pressão Humidade
    00:00 +8°C° 0,3 mm 2 m/s 748 mmHg 95%
    01:00 +8°C° 0,3 mm 3 m/s 748 mmHg 95%
    02:00 +8°C° 0,3 mm 3 m/s 747 mmHg 94%
    03:00 +8°C° 0,4 mm 3 m/s 747 mmHg 95%
    04:00 +8°C° 0,4 mm 3 m/s 747 mmHg 95%
    05:00 +8°C° 0,4 mm 3 m/s 747 mmHg 95%
    06:00 +8°C° 0,4 mm 3 m/s 747 mmHg 94%
    07:00 +8°C° 0,4 mm 3 m/s 747 mmHg 94%
    08:00 +8°C° 0,4 mm 3 m/s 746 mmHg 93%
    09:00 +8°C° 0,3 mm 4 m/s 746 mmHg 91%
    10:00 +8°C° 0,3 mm 4 m/s 745 mmHg 89%
    11:00 +10°C° 0,3 mm 4 m/s 745 mmHg 87%
    12:00 +10°C° 0,5 mm 4 m/s 744 mmHg 85%
    13:00 +10°C° 0,5 mm 4 m/s 744 mmHg 84%
    14:00 +11°C° 0,5 mm 4 m/s 743 mmHg 82%
    15:00 +11°C° 0,3 mm 3 m/s 744 mmHg 84%
    16:00 +10°C° 0,3 mm 3 m/s 744 mmHg 86%
    17:00 +10°C° 0,3 mm 3 m/s 744 mmHg 88%
    18:00 +9°C° 0,1 mm 3 m/s 744 mmHg 91%
    19:00 +9°C° 0,1 mm 3 m/s 744 mmHg 93%
    20:00 +9°C° 0,1 mm 3 m/s 745 mmHg 95%
    21:00 +8°C° 0,3 mm 3 m/s 745 mmHg 95%
    22:00 +8°C° 0,3 mm 3 m/s 745 mmHg 95%
    23:00 +7°C° 0,3 mm 4 m/s 746 mmHg 95%

    26 Fevereiro, Segunda-feira

    Tempo Temperatura Precipitação Vento Pressão Humidade
    00:00 +7°C° 1 mm 4 m/s 746 mmHg 95%
    01:00 +6°C° 1 mm 5 m/s 746 mmHg 95%
    02:00 +6°C° 1 mm 5 m/s 747 mmHg 95%
    03:00 +5°C° 1,2 mm 5 m/s 747 mmHg 95%
    04:00 +5°C° 1,2 mm 5 m/s 747 mmHg 95%
    05:00 +3°C° 1,2 mm 5 m/s 748 mmHg 95%
    06:00 +3°C° 0,6 mm 5 m/s 748 mmHg 94%
    07:00 +4°C° 0,6 mm 4 m/s 749 mmHg 94%
    08:00 +4°C° 0,6 mm 4 m/s 750 mmHg 93%
    09:00 +4°C° 0,2 mm 4 m/s 750 mmHg 92%
    10:00 +4°C° 0,2 mm 3 m/s 750 mmHg 90%
    11:00 +5°C° 0,2 mm 3 m/s 749 mmHg 89%
    12:00 +5°C° 0 mm 3 m/s 749 mmHg 88%
    13:00 +5°C° 0 mm 3 m/s 749 mmHg 87%
    14:00 +5°C° 0 mm 3 m/s 748 mmHg 87%
    15:00 +5°C° 0 mm 3 m/s 748 mmHg 88%
    16:00 +5°C° 0 mm 3 m/s 748 mmHg 89%
    17:00 +4°C° 0 mm 3 m/s 748 mmHg 91%
    18:00 +4°C° 0 mm 3 m/s 747 mmHg 92%
    19:00 +4°C° 0 mm 3 m/s 747 mmHg 93%
    20:00 +4°C° 0 mm 3 m/s 747 mmHg 94%
    21:00 +4°C° 0 mm 4 m/s 746 mmHg 94%
    22:00 +4°C° 0 mm 4 m/s 745 mmHg 94%
    23:00 +4°C° 0 mm 4 m/s 744 mmHg 94%
    Mostrar mais